Arctic Village, AK

6:22 AM AKDT on September 28, 2016 (GMT -0800)
Arctic Village

Weather History for PARC - January, 2014

Change the Weather History Date:

Friday, January 17, 2014

  Actual Average Record
Temperature  
Mean Temperature -8 °F -  
Max Temperature 5 °F -23 °F 37 °F (1963)
Min Temperature -20 °F -43 °F -62 °F (1972)
Degree Days  
Heating Degree Days 72    
Moisture  
Dew Point -16 °F    
Average Humidity 60    
Maximum Humidity 100    
Minimum Humidity 25    
Precipitation  
Precipitation 0.00 in - - ()
Sea Level Pressure  
Sea Level Pressure 29.68 in    
Wind  
Wind Speed 6 mph (NE)    
Max Wind Speed 18 mph    
Max Gust Speed 24 mph    
Visibility 7 miles    
Events      
Averages and records for this station are not official NWS values.
T = Trace of Precipitation, MM = Missing Value Source: NWS Daily Summary

Daily Weather History Graph

Daily Weather History Graph

Search for Another Location

Airport or City:

Trip Planner

Search our weather history database for the weather conditions in past years. The results will help you decide how hot, cold, wet, or windy it might be!

Date:

Astronomy

Jan. 17, 2014 Rise Set
Actual Time 11:06 AM AKST 2:39 PM AKST
Civil Twilight 9:31 AM AKST 4:14 PM AKST
Nautical Twilight 8:12 AM AKST 5:33 PM AKST
Astronomical Twilight 7:04 AM AKST 6:41 PM AKST
Moon 6:22 PM AKST (1/17) 9:59 AM AKST (1/17)
Length of Visible Light 6h 43m
Length of Day
3h 32m
Full, 98% of the Moon is Illuminated
Jan 17
Full
Jan 23
Last Quarter
Jan 30
New
Feb 6
First Quarter
Feb 14
Full

Hourly Weather History & Observations

Time (AKST) Temp. Windchill Dew Point Humidity Pressure Visibility Wind Dir Wind Speed Gust Speed Precip Events Conditions
12:16 AM -14.8 °F - - N/A% 29.77 in 10.0 mi Calm Calm - N/A   Mostly Cloudy
12:36 AM -14.8 °F - - N/A% 29.78 in 10.0 mi Calm Calm - N/A   Overcast
12:56 AM -13.0 °F - -29.2 °F 44% 29.79 in 10.0 mi Calm Calm - N/A   Overcast
1:16 AM -13.0 °F -22.7 °F -22.0 °F 64% 29.79 in 10.0 mi NE 3.5 mph - N/A   Overcast
1:36 AM -13.0 °F - -22.0 °F 64% 29.81 in 10.0 mi Calm Calm - N/A   Overcast
1:56 AM -11.2 °F - -23.8 °F 54% 29.81 in 10.0 mi Calm Calm - N/A   Scattered Clouds
2:16 AM -11.2 °F - - N/A% 29.82 in 10.0 mi Calm Calm - N/A   Clear
2:36 AM -14.8 °F - - N/A% 29.82 in 10.0 mi Calm Calm - N/A   Clear
2:56 AM -14.8 °F -29.1 °F - N/A% 29.81 in 10.0 mi NNE 5.8 mph - N/A   Clear
3:16 AM -16.6 °F - - N/A% 29.82 in 10.0 mi Calm Calm - N/A   Clear
3:36 AM -14.8 °F -27.2 °F - N/A% 29.82 in 10.0 mi NE 4.6 mph - N/A   Clear
3:56 AM -16.6 °F -31.3 °F - N/A% 29.82 in 10.0 mi NE 5.8 mph - N/A   Clear
4:16 AM -16.6 °F -31.3 °F - N/A% 29.81 in 10.0 mi NNE 5.8 mph - N/A   Clear
4:36 AM -18.4 °F -33.4 °F - N/A% 29.83 in 10.0 mi NNE 5.8 mph - N/A   Clear
4:56 AM -18.4 °F - - N/A% 29.84 in 10.0 mi Calm Calm - N/A   Clear
5:16 AM -20.2 °F -38.8 °F - N/A% 29.83 in 10.0 mi North 8.1 mph - N/A   Clear
5:36 AM -18.4 °F -31.4 °F - N/A% 29.83 in 10.0 mi NE 4.6 mph - N/A   Clear
5:56 AM -20.2 °F - - N/A% 29.83 in 10.0 mi Calm Calm - N/A   Clear
6:16 AM -18.4 °F -35.1 °F -23.8 °F 76% 29.82 in 10.0 mi NE 6.9 mph - N/A   Clear
6:36 AM -18.4 °F -36.6 °F - N/A% 29.81 in 10.0 mi NE 8.1 mph - N/A   Clear
6:56 AM -18.4 °F -33.4 °F -25.6 °F 70% 29.81 in 10.0 mi ENE 5.8 mph - N/A   Clear
7:16 AM -18.4 °F -35.1 °F -29.2 °F 58% 29.80 in 10.0 mi NE 6.9 mph - N/A   Clear
7:36 AM -18.4 °F -35.1 °F -25.6 °F 70% 29.80 in 10.0 mi NNE 6.9 mph - N/A   Clear
7:56 AM -16.6 °F -32.9 °F -23.8 °F 70% 29.81 in 10.0 mi NE 6.9 mph - N/A   Clear
8:16 AM -16.6 °F -29.3 °F - N/A% 29.81 in 10.0 mi ENE 4.6 mph - N/A   Clear
8:36 AM -16.6 °F -32.9 °F -18.4 °F 92% 29.81 in 10.0 mi NE 6.9 mph - N/A   Clear
8:56 AM -14.8 °F -29.1 °F -29.2 °F 48% 29.81 in 10.0 mi NE 5.8 mph - N/A   Clear
9:16 AM -14.8 °F -30.8 °F - N/A% 29.80 in 10.0 mi ENE 6.9 mph - N/A   Clear
9:36 AM -14.8 °F -32.2 °F - N/A% 29.81 in 10.0 mi East 8.1 mph - N/A   Clear
9:56 AM -14.8 °F -32.2 °F - N/A% 29.79 in 10.0 mi ENE 8.1 mph - N/A   Clear
10:16 AM -13.0 °F -28.6 °F - N/A% 29.79 in 10.0 mi East 6.9 mph - N/A   Clear
10:36 AM -11.2 °F -27.8 °F - N/A% 29.76 in 10.0 mi East 8.1 mph - N/A   Mostly Cloudy
10:56 AM -11.2 °F -27.8 °F - N/A% 29.74 in 10.0 mi NE 8.1 mph - N/A   Scattered Clouds
11:16 AM -11.2 °F -29.0 °F -29.2 °F 41% 29.76 in 10.0 mi ENE 9.2 mph - N/A   Scattered Clouds
11:36 AM -11.2 °F -29.0 °F -23.8 °F 54% 29.77 in 10.0 mi East 9.2 mph - N/A   Mostly Cloudy
11:56 AM -9.4 °F -24.3 °F -18.4 °F 65% 29.76 in 10.0 mi East 6.9 mph - N/A   Mostly Cloudy
12:16 PM -9.4 °F -20.9 °F -20.2 °F 59% 29.75 in 10.0 mi NE 4.6 mph - N/A   Mostly Cloudy
12:36 PM -9.4 °F -24.3 °F -11.2 °F 92% 29.73 in 10.0 mi ENE 6.9 mph - N/A   Scattered Clouds
12:56 PM -7.6 °F -20.6 °F -7.6 °F 100% 29.71 in 10.0 mi East 5.8 mph - N/A   Mostly Cloudy
1:16 PM -7.6 °F -23.4 °F - N/A% 29.70 in 10.0 mi East 8.1 mph - N/A   Overcast
1:36 PM -7.6 °F -25.7 °F - N/A% 29.68 in 10.0 mi East 10.4 mph - N/A   Overcast
1:56 PM -2.2 °F -22.2 °F -27.4 °F 29% 29.67 in 10.0 mi NE 15.0 mph 21.9 mph N/A   Overcast
2:16 PM -2.2 °F -18.0 °F -22.0 °F 39% 29.67 in 10.0 mi ENE 9.2 mph - N/A   Overcast
2:36 PM -4.0 °F -22.1 °F -18.4 °F 50% 29.65 in 10.0 mi East 11.5 mph - N/A   Overcast
2:56 PM -4.0 °F -20.2 °F -9.4 °F 78% 29.65 in 6.0 mi East 9.2 mph - N/A   Overcast
3:16 PM -4.0 °F -21.2 °F - N/A% 29.63 in 1.8 mi East 10.4 mph - N/A   Overcast
3:36 PM -2.2 °F -21.5 °F -29.2 °F 27% 29.61 in 1.8 mi East 13.8 mph - N/A   Overcast
3:56 PM -2.2 °F -18.9 °F -27.4 °F 29% 29.61 in 2.0 mi East 10.4 mph - N/A   Overcast
4:16 PM -2.2 °F -20.7 °F -23.8 °F 35% 29.61 in 2.5 mi ENE 12.7 mph - N/A   Overcast
4:36 PM -2.2 °F -20.7 °F -16.6 °F 50% 29.60 in 1.8 mi East 12.7 mph - N/A   Overcast
4:56 PM -0.4 °F -16.7 °F -5.8 °F 78% 29.59 in 1.8 mi ENE 10.4 mph - N/A   Overcast
5:16 PM 1.4 °F -15.3 °F -27.4 °F 25% 29.57 in 1.8 mi NE 11.5 mph 20.7 mph N/A   Overcast
5:36 PM 1.4 °F -18.8 °F -22.0 °F 33% 29.56 in 3.0 mi NE 17.3 mph - N/A   Mostly Cloudy
5:56 PM 1.4 °F -16.9 °F -14.8 °F 47% 29.55 in 8.0 mi NE 13.8 mph 17.3 mph N/A   Mostly Cloudy
6:16 PM 3.2 °F -13.1 °F -11.2 °F 51% 29.55 in 10.0 mi NE 11.5 mph 20.7 mph N/A   Overcast
6:36 PM 3.2 °F -13.9 °F -25.6 °F 25% 29.54 in 10.0 mi NE 12.7 mph 17.3 mph N/A   Overcast
6:56 PM 3.2 °F -13.9 °F -14.8 °F 43% 29.53 in 10.0 mi NE 12.7 mph 19.6 mph N/A   Overcast
7:16 PM 3.2 °F -13.9 °F -5.8 °F 66% 29.52 in 3.0 mi NE 12.7 mph 21.9 mph N/A   Overcast
7:36 PM 3.2 °F -14.6 °F -2.2 °F 78% 29.51 in 2.5 mi NE 13.8 mph 19.6 mph N/A   Overcast
7:56 PM 3.2 °F -12.2 °F -5.8 °F 66% 29.51 in 2.0 mi NE 10.4 mph - N/A   Overcast
8:16 PM 3.2 °F -15.3 °F -25.6 °F 25% 29.48 in 2.5 mi NNE 15.0 mph 20.7 mph N/A   Overcast
8:36 PM 3.2 °F -13.9 °F -11.2 °F 51% 29.48 in 2.0 mi NE 12.7 mph 24.2 mph N/A   Overcast
8:56 PM 3.2 °F -15.9 °F -2.2 °F 78% 29.46 in 1.5 mi NE 16.1 mph 21.9 mph N/A   Overcast
9:16 PM 3.2 °F -16.5 °F -0.4 °F 85% 29.46 in 1.2 mi NE 17.3 mph 21.9 mph N/A   Overcast
9:36 PM 3.2 °F -13.9 °F -0.4 °F 85% 29.46 in 2.0 mi NE 12.7 mph - N/A   Overcast
9:56 PM 3.2 °F -14.6 °F -0.4 °F 85% 29.45 in 1.8 mi NE 13.8 mph 21.9 mph N/A   Overcast
10:16 PM 3.2 °F -14.6 °F - N/A% 29.46 in 2.5 mi NNE 13.8 mph 17.3 mph N/A   Overcast
10:36 PM 3.2 °F -13.1 °F -16.6 °F 39% 29.44 in 4.0 mi NE 11.5 mph - N/A   Overcast
10:56 PM 5.0 °F -11.6 °F 1.4 °F 85% 29.43 in 1.8 mi NE 12.7 mph 18.4 mph N/A   Overcast
11:16 PM 5.0 °F -11.6 °F 5.0 °F 100% 29.43 in 2.0 mi NE 12.7 mph 19.6 mph N/A   Overcast
11:36 PM 5.0 °F -13.6 °F 3.2 °F 92% 29.41 in 1.8 mi NNE 16.1 mph 23.0 mph N/A   Overcast
11:56 PM 3.2 °F -17.1 °F -0.4 °F 85% 29.39 in 1.5 mi NE 18.4 mph 23.0 mph N/A   Overcast